2020-079L (46837 NORAD) Tracking and Keplerian Element Data
This shows tracking and keplerian element data for the satellite.
Feedback or suggestion? Click here.
Element | Value |
Catalog | 46837 |
Name | 2020-079L |
Epoch Orbit | 1117 |
Epoch Day | 18.14618633 |
Epoch Year | 2021 |
RAAN | 94.9652 |
Inclination | 97.2594 |
Eccentricity | 0.0008163 |
Argument of Perigee | 32.9701 |
Mean Anonmoly | 51.4816 |
Mean Motion | 15.32398173 |
Decay Rate | 1.4E-05 |
L1 | 1 46837U 20079L 21018.14618633 .00001400 00000-0 47146-4 0 9991 |
L2 | 2 46837 97.2594 94.9652 0008163 32.9701 51.4816 15.32398173 11178 |
Live tracking and technical data element details for 2020-079L (NORAD 46837). 2020-079L can be tracked NOW for your location showing map with azimuth and elevation plus other details from your city location.
Track the satellite on the map from your city or location and see movement details for azimuth, elevation, latitude, longitude, range, height, and movement on the map or in text.
IsCatalogInMostPopularTable: catalog: 46837, numindb: 28
Update: records affected: 1
GetName: 46837 2020-079L
Hit Count: updated at: Mon, 18 Jan 2021 16:03:02 GMT